Weather History for Lovelock, NV

Change the Weather History Date:

Sunday, December 8, 2013

  Actual Average Record
Temperature  
Mean Temperature 4 °F -  
Max Temperature 16 °F 45 °F 62 °F (1993)
Min Temperature -9 °F 16 °F -9 °F (2013)
Degree Days  
Heating Degree Days 62    
Moisture  
Dew Point -6 °F    
Average Humidity 76    
Maximum Humidity 87    
Minimum Humidity 57    
Precipitation  
Precipitation 0.00 in - - ()
Sea Level Pressure  
Sea Level Pressure 30.48 in    
Wind  
Wind Speed 3 mph (ENE)    
Max Wind Speed 8 mph    
Max Gust Speed -    
Visibility 10 miles    
Events      
Averages and records for this station are not official NWS values.
T = Trace of Precipitation, MM = Missing Value Source: NWS Daily Summary

Daily Weather History Graph

Daily Weather History Graph

Search for Another Location

Airport:

Trip Planner

Search our weather history database for the weather conditions in past years. The results will help you decide how hot, cold, wet, or windy it might be!

Date:

Astronomy

Dec. 08, 2013 Rise Set
Actual Time 7:04 AM PST 4:28 PM PST
Civil Twilight 6:33 AM PST 4:59 PM PST
Nautical Twilight 5:59 AM PST 5:32 PM PST
Astronomical Twilight 5:26 AM PST 6:05 PM PST
Moon 11:27 AM PST (12/8) 11:23 PM PST (12/8)
Length of Visible Light 10h 25m
Length of Day
9h 24m
Waxing Crescent, 41% of the Moon is Illuminated
Dec 8
Waxing Crescent
Dec 9
First Quarter
Dec 17
Full
Dec 25
Last Quarter
Jan 1
New

Hourly Weather History & Observations

Time (PST) Temp. Windchill Dew Point Humidity Pressure Visibility Wind Dir Wind Speed Gust Speed Precip Events Conditions
12:53 AM -0.0 °F -7.9 °F -4.0 °F 83% 30.28 in 10.0 mi North 3.5 mph - N/A   Clear
1:53 AM -2.0 °F - -6.0 °F 83% 30.31 in 10.0 mi Calm Calm - N/A   Clear
2:53 AM -6.0 °F -21.5 °F -9.9 °F 83% 30.33 in 10.0 mi East 8.1 mph - N/A   Clear
3:53 AM -7.1 °F - -11.9 °F 79% 30.34 in 10.0 mi Calm Calm - N/A   Clear
4:53 AM -7.1 °F - -11.9 °F 79% 30.37 in 10.0 mi Calm Calm - N/A   Clear
5:53 AM -9.9 °F -23.4 °F -15.0 °F 78% 30.42 in 10.0 mi East 5.8 mph - N/A   Clear
6:53 AM -9.9 °F - -16.1 °F 74% 30.44 in 10.0 mi Calm Calm - N/A   Clear
7:53 AM -7.1 °F - -9.9 °F 87% 30.47 in 10.0 mi Calm Calm - N/A   Clear
8:53 AM -2.9 °F - -6.0 °F 87% 30.48 in 10.0 mi Calm Calm - N/A   Clear
9:53 AM 3.9 °F - -2.0 °F 76% 30.49 in 10.0 mi Calm Calm - N/A   Clear
10:53 AM 9.0 °F - 1.0 °F 70% 30.47 in 10.0 mi Calm Calm - N/A   Clear
11:53 AM 12.0 °F 4.1 °F 3.0 °F 67% 30.46 in 10.0 mi Variable 4.6 mph - N/A   Clear
12:53 PM 15.1 °F 9.4 °F 3.9 °F 61% 30.44 in 10.0 mi Variable 3.5 mph - N/A   Clear
1:53 PM 16.0 °F 8.8 °F 3.0 °F 57% 30.43 in 10.0 mi NE 4.6 mph - N/A   Clear
2:53 PM 15.1 °F 9.4 °F 3.9 °F 61% 30.45 in 10.0 mi ENE 3.5 mph - N/A   Clear
3:53 PM 15.1 °F 7.7 °F 3.9 °F 61% 30.47 in 10.0 mi ENE 4.6 mph - N/A   Clear
4:53 PM 8.1 °F -0.5 °F 1.0 °F 73% 30.49 in 10.0 mi East 4.6 mph - N/A   Clear
5:53 PM 3.9 °F -5.3 °F -0.9 °F 80% 30.54 in 10.0 mi NE 4.6 mph - N/A   Clear
6:53 PM -2.0 °F -12.2 °F -7.1 °F 79% 30.58 in 10.0 mi South 4.6 mph - N/A   Clear
7:53 PM -0.9 °F - -6.0 °F 79% 30.59 in 10.0 mi Calm Calm - N/A   Clear
8:53 PM -5.1 °F -19.1 °F -9.9 °F 80% 30.62 in 10.0 mi East 6.9 mph - N/A   Clear
9:53 PM -8.0 °F - -13.0 °F 79% 30.63 in 10.0 mi Calm Calm - N/A   Clear
10:53 PM -9.0 °F - -13.0 °F 83% 30.65 in 10.0 mi Calm Calm - N/A   Clear
11:53 PM -9.0 °F - -14.1 °F 79% 30.66 in 10.0 mi Calm Calm - N/A   Clear